Location: Zagreb
(45.8000°N, 16.0000°E)
Time: 00:48:41
(UTC+01:00)

Explorer 11/Cluster Stage 4 - All Passes

Search period start: 26 January 2020 00:00
Search period end: 05 February 2020 00:00
Orbit: 467 x 1259 km, 28.8° (Epoch: 25 January)

Date Brightness Start Highest point End Pass type
(mag) Time Alt. Az. Time Alt. Az. Time Alt. Az.
26 Jan - 12:44:35 10° S 12:48:27 14° SSE 12:52:17 10° SE daylight
26 Jan - 14:30:47 10° SW 14:36:27 21° S 14:41:46 10° SE daylight
26 Jan - 16:19:19 10° SW 16:24:25 19° SSW 16:29:05 10° SSE daylight
27 Jan - 12:33:00 10° SSW 12:37:24 16° SSE 12:41:46 10° SE daylight
27 Jan - 14:19:34 10° SW 14:25:25 22° S 14:30:59 10° SE daylight
27 Jan - 16:08:16 10° SW 16:13:25 19° SSW 16:18:10 10° SSE daylight
28 Jan - 12:21:35 10° SSW 12:26:20 17° SSE 12:31:07 10° SE daylight
28 Jan - 14:08:25 10° SW 14:14:23 22° S 14:20:08 10° SE daylight
28 Jan - 15:57:15 10° SW 16:02:24 18° SSW 16:07:12 10° SSE daylight
29 Jan - 12:10:17 10° SSW 12:15:17 18° SSE 12:20:22 10° SE daylight
29 Jan - 13:57:19 10° SW 14:03:20 23° S 14:09:14 10° SE daylight
29 Jan - 15:46:18 10° SW 15:51:21 18° SSW 15:56:09 10° SSE daylight
30 Jan - 11:59:05 10° SSW 12:04:13 19° SSE 12:09:31 10° SE daylight
30 Jan - 13:46:17 10° SW 13:52:17 23° S 13:58:14 10° SE daylight
30 Jan - 15:35:25 10° SW 15:40:18 17° SSW 15:45:00 10° SSE daylight
31 Jan - 11:47:58 10° SSW 11:53:10 20° SSE 11:58:36 10° SE daylight
31 Jan - 13:35:18 10° SW 13:41:14 23° S 13:47:13 10° SE daylight
31 Jan - 15:24:36 10° SW 15:29:15 16° SSW 15:33:46 10° SSE daylight
01 Feb - 09:53:21 10° SSE 09:54:27 10° SSE 09:55:36 10° SE daylight
01 Feb - 11:36:56 10° SSW 11:42:07 20° SSE 11:47:38 10° SE daylight
01 Feb - 13:24:24 10° SW 13:30:11 22° S 13:36:07 10° SE daylight
01 Feb - 15:13:54 10° SW 15:18:11 15° SSW 15:22:24 10° SSE daylight
02 Feb - 09:41:33 10° S 09:43:26 11° SSE 09:45:23 10° SE daylight
02 Feb - 11:25:58 10° SW 11:31:06 20° S 11:36:37 10° SE daylight
02 Feb - 13:13:32 10° SW 13:19:09 21° S 13:24:57 10° SE daylight
02 Feb - 15:03:20 10° SW 15:07:06 14° SSW 15:10:53 10° S daylight
03 Feb - 09:30:10 10° S 09:32:25 12° SSE 09:34:47 10° SE daylight
03 Feb - 11:15:04 10° SW 11:20:05 20° S 11:25:32 10° SE daylight
03 Feb - 13:02:45 10° SW 13:08:06 20° S 13:13:44 10° SE daylight
03 Feb - 14:52:59 10° SW 14:56:03 12° SSW 14:59:08 10° S daylight
04 Feb - 09:18:59 10° S 09:21:25 12° SSE 09:24:01 10° SE daylight
04 Feb - 11:04:14 10° SW 11:09:05 20° S 11:14:24 10° SE daylight
04 Feb - 12:52:01 10° SW 12:57:05 19° S 13:02:25 10° SSE daylight
04 Feb - 14:43:04 10° SW 14:44:59 11° SSW 14:46:56 10° S daylight
